Miscellaneous Local Product
Issued by NWS North Platte, NE

Home | Current Version | Previous Version | Text Only | Print | Product List | Glossary On
Versions: 1 2 3 4 5 6 7 8 9 10 11 12 13 14 15 16 17 18 19 20 21 22 23 24 25 26 27 28 29 30 31 32 33 34 35 36 37 38 39 40 41 42 43 44 45 46 47 48 49 50
511
AXUS43 KLBF 191010
MISLBF


WESTERN AND NORTH CENTRAL NEBRASKA HOURLY WEATHER ROUNDUP
NATIONAL WEATHER SERVICE NORTH PLATTE NE
400 AM CST SUN FEB 19 2017

NOTE: "FAIR" INDICATES FEW OR NO CLOUDS BELOW 12,000 FEET WITH NO
SIGNIFICANT WEATHER AND/OR OBSTRUCTIONS TO VISIBILITY.

NOTE: STATIONS NOT REPORTING VARIABLES SUCH AS SKY/WEATHER OR
PRESSURE ARE PROVIDED BY RAWS AND APRS NETWORKS AND ARE NOT UNDER
NATIONAL WEATHER SERVICE QUALITY CONTROL.

...OBSERVATIONS IN AND NEAR THE EASTERN PANHANDLE OF NEBRASKA...

CITY           SKY/WX    TMP DP  RH WIND       PRES   REMARKS
PINE RIDGE     CLOUDY    46  34  62 VRB3      29.60F
CHADRON        CLOUDY    46  31  55 SW5       29.60S
ALLIANCE       CLOUDY    40  32  73 S8        29.62F WCI  34
SIDNEY         CLOUDY    46  26  45 SW6       29.63F
CRESCENT LAKE    N/A     44  32  62 S9          N/A
$$

...OBSERVATIONS IN NORTHERN NEBRASKA AND FAR SOUTHERN SOUTH DAKOTA...

CITY           SKY/WX    TMP DP  RH WIND       PRES   REMARKS
WINNER         FAIR      50  35  56 S15       29.67F
VALENTINE      PTCLDY    46  34  62 VRB3      29.68F
THEDFORD       PTCLDY    45  37  75 S7        29.69F
AINSWORTH      PTCLDY    43  35  72 S13       29.70S
O`NEILL        PTCLDY    40  33  74 SE6       29.74F
ORD            CLOUDY    36  30  79 SE5       29.76S WCI  32
BROKEN BOW     CLOUDY    34  30  85 CALM      29.75S
VALENTINE NWR    N/A     38  31  77 S8          N/A  WCI  32
HALSEY           N/A     41  34  76 S5          N/A
CHAMBERS         N/A     38  31  76 S3          N/A
EWING            N/A     39  33  80 CALM        N/A
$$

...OBSERVATIONS IN SOUTHWEST NEBRASKA AND FAR NORTHEAST COLORADO...

CITY           SKY/WX    TMP DP  RH WIND       PRES   REMARKS
HOLYOKE        FAIR      52  32  46 S14       29.65F
IMPERIAL       CLOUDY    48  32  53 SE14      29.69F
OGALLALA       CLOUDY    48  33  57 CALM      29.67F
NORTH PLATTE   PTCLDY    48  35  60 SE7       29.72F
MCCOOK         CLOUDY    48  37  65 S8        29.74F
LEXINGTON      CLOUDY    45  37  75 S14       29.77S
STAPLETON        N/A     41  35  79 CALM        N/A
GOTHENBURG       N/A     47  36  65 S6          N/A
CALLAWAY         N/A     37  34  88 S12         N/A  WCI  29
$$

...OBSERVATIONS IN CENTRAL LINCOLN COUNTY AREA...

CITY           SKY/WX    TMP DP  RH WIND       PRES   REMARKS
N.P. AIRPORT   PTCLDY    48  35  60 SE7       29.72F
N.P. DOWNTOWN    N/A     48  36  63 SE3         N/A
N.P. SOUTHEAST   N/A     48  36  62 S5          N/A
N.P. HILLCREST   N/A     47  37  68 S10         N/A
$$

...SOME OBSERVATIONS FROM AROUND THE REGION...

CITY           SKY/WX    TMP DP  RH WIND       PRES   REMARKS
LARAMIE        CLOUDY    23  20  88 W5        29.73R WCI  17
CHEYENNE       CLOUDY    36  25  64 W7        29.66F WCI  30
DENVER         CLOUDY    39  21  48 SW7       29.65F WCI  34
AKRON          CLOUDY    47  26  44 S13       29.64F
SCOTTSBLUFF    CLOUDY    38  29  70 W5        29.63S WCI  34
RAPID CITY     CLOUDY    41  30  65 E3        29.57F
BISMARCK       CLOUDY    35  33  92 E9        29.64S WCI  28
PIERRE         PTCLDY    41  32  70 SE12      29.64F
SIOUX FALLS    CLOUDY    36  34  92 E6        29.81F WCI  31
OMAHA          CLOUDY    45  33  63 S7        29.85R
GRAND ISLAND   PTCLDY    50  45  83 S14       29.80S
KANSAS CITY    CLEAR     47  46  97 S7        29.90S
WICHITA        FOG       43  42  97 CALM      29.88S VSB 1/4
OKLAHOMA CITY  CLOUDY    52  52 100 SE12      29.84F FOG
DALLAS         CLOUDY    62  59  90 SE6       29.84S
AMARILLO       CLOUDY    43  43 100 SE13      29.81S FOG
DODGE CITY     PTCLDY    44  43  96 S8        29.81S FOG
HAYS           CLOUDY    44  43  96 SE3       29.82F FOG
GOODLAND       CLOUDY    46  34  62 S20       29.69F
$$




USA.gov is the U.S. government's official web portal to all federal, state and local government web resources and services.